| time (UTC) | temp F | wind direction | speed MPH | gust MPH | rain 1hr in | rain 24hr in | rain mn in | humidity % | barometer mb |
| 20260505004540 | 48 | 232 | 0.0 | 6.0 | 0.00 | 0.08 | 0.07 | 32 | 1006.5 |
| 20260505003021 | 49 | 94 | 1.0 | 5.0 | 0.00 | 0.08 | 0.07 | 33 | 1006.6 |
| 20260505001520 | 49 | 90 | 0.0 | 14.0 | 0.00 | 0.08 | 0.07 | 34 | 1006.8 |
| 20260505000019 | 50 | 118 | 0.0 | 7.0 | 0.00 | 0.08 | 0.07 | 38 | 1006.6 |
| 20260504234520 | 50 | 212 | 1.0 | 11.0 | 0.00 | 0.08 | 0.07 | 38 | 1006.5 |
| 20260504233021 | 50 | 96 | 2.0 | 11.0 | 0.00 | 0.08 | 0.07 | 36 | 1006.6 |
| 20260504231516 | 50 | 143 | 3.0 | 11.0 | 0.00 | 0.08 | 0.07 | 37 | 1006.5 |
| 20260504230017 | 51 | 102 | 5.0 | 17.0 | 0.00 | 0.08 | 0.07 | 35 | 1006.6 |
| 20260504224516 | 52 | 76 | 3.0 | 9.0 | 0.00 | 0.08 | 0.07 | 34 | 1006.4 |
| 20260504223014 | 51 | 240 | 0.0 | 8.0 | 0.00 | 0.08 | 0.07 | 37 | 1006.3 |
| 20260504221513 | 51 | 101 | 1.0 | 8.0 | 0.00 | 0.08 | 0.07 | 39 | 1006.4 |
| 20260504220011 | 51 | 58 | 4.0 | 11.0 | 0.00 | 0.08 | 0.07 | 40 | 1006.4 |
| 20260504214510 | 51 | 259 | 2.0 | 9.0 | 0.00 | 0.08 | 0.07 | 40 | 1006.5 |
| 20260504213021 | 51 | 224 | 2.0 | 9.0 | 0.00 | 0.08 | 0.07 | 39 | 1006.7 |
| 20260504211507 | 51 | 167 | 2.0 | 12.0 | 0.00 | 0.08 | 0.07 | 41 | 1006.9 |
| 20260504210106 | 51 | 66 | 3.0 | 9.0 | 0.00 | 0.08 | 0.07 | 40 | 1007.0 |
| 20260504204502 | 50 | 252 | 1.0 | 7.0 | 0.00 | 0.08 | 0.07 | 43 | 1007.0 |
| 20260504203002 | 50 | 228 | 3.0 | 11.0 | 0.00 | 0.08 | 0.07 | 43 | 1007.3 |
| 20260504201611 | 51 | 216 | 2.0 | 9.0 | 0.00 | 0.08 | 0.07 | 44 | 1007.2 |
| 20260504201501 | 51 | 218 | 2.0 | 9.0 | 0.00 | 0.08 | 0.07 | 45 | 1007.2 |
| 20260504200106 | 50 | 60 | 2.0 | 8.0 | 0.00 | 0.08 | 0.07 | 45 | 1007.2 |
| 20260504194605 | 51 | 235 | 1.0 | 7.0 | 0.00 | 0.08 | 0.07 | 47 | 1007.3 |
| 20260504193057 | 50 | 143 | 1.0 | 9.0 | 0.00 | 0.08 | 0.07 | 46 | 1007.1 |
| 20260504191618 | 49 | 236 | 2.0 | 8.0 | 0.00 | 0.08 | 0.07 | 48 | 1007.5 |
| 20260504190059 | 50 | 153 | 2.0 | 8.0 | 0.00 | 0.08 | 0.07 | 51 | 1007.3 |
| 20260504184602 | 49 | 122 | 1.0 | 9.0 | 0.00 | 0.08 | 0.07 | 51 | 1007.4 |
| 20260504183053 | 49 | 140 | 1.0 | 9.0 | 0.00 | 0.08 | 0.07 | 52 | 1007.4 |
| 20260504181551 | 49 | 207 | 1.0 | 8.0 | 0.00 | 0.08 | 0.07 | 55 | 1007.8 |
| 20260504180051 | 49 | 124 | 1.0 | 5.0 | 0.00 | 0.08 | 0.07 | 56 | 1007.9 |
| 20260504174549 | 49 | 167 | 2.0 | 6.0 | 0.00 | 0.08 | 0.07 | 55 | 1007.6 |
| 20260504173048 | 50 | 90 | 1.0 | 5.0 | 0.00 | 0.08 | 0.07 | 56 | 1007.6 |
| 20260504171545 | 49 | 113 | 1.0 | 5.0 | 0.00 | 0.08 | 0.07 | 59 | 1008.0 |
| 20260504081544 | 37 | 269 | 0.0 | 0.0 | 0.02 | 0.05 | 0.04 | 92 | 1011.8 |
| 20260504050020 | 41 | 25 | 0.0 | 2.0 | 0.00 | 0.00 | 0.00 | 75 | 1014.2 |
| 20260504044518 | 41 | 61 | 0.0 | 0.0 | 0.00 | 0.00 | 0.00 | 74 | 1014.2 |
| 20260504043018 | 42 | 61 | 0.0 | 0.0 | 0.00 | 0.00 | 0.00 | 71 | 1014.3 |
| 20260504041517 | 42 | 194 | 0.0 | 7.0 | 0.00 | 0.00 | 0.00 | 67 | 1014.4 |
| 20260504040017 | 44 | 269 | 4.0 | 9.0 | 0.00 | 0.00 | 0.00 | 60 | 1014.1 |
| 20260504034518 | 43 | 22 | 0.0 | 1.0 | 0.00 | 0.00 | 0.00 | 48 | 1012.8 |
| 20260504033015 | 42 | 264 | 0.0 | 1.0 | 0.00 | 0.00 | 0.00 | 51 | 1012.5 |
| 20260504031515 | 43 | 284 | 0.0 | 0.0 | 0.00 | 0.00 | 0.00 | 51 | 1012.2 |
| 20260504030014 | 44 | 284 | 0.0 | 1.0 | 0.00 | 0.00 | 0.00 | 49 | 1012.1 |
| 20260504024513 | 45 | 286 | 0.0 | 0.0 | 0.00 | 0.00 | 0.00 | 45 | 1012.2 |
| 20260504023012 | 45 | 286 | 0.0 | 0.0 | 0.00 | 0.00 | 0.00 | 42 | 1011.9 |
| 20260504021512 | 46 | 286 | 0.0 | 0.0 | 0.00 | 0.00 | 0.00 | 38 | 1011.9 |
| 20260504020014 | 48 | 286 | 0.0 | 0.0 | 0.00 | 0.00 | 0.00 | 36 | 1011.8 |
| 20260504014510 | 50 | 286 | 0.0 | 0.0 | 0.00 | 0.00 | 0.00 | 32 | 1011.8 |
| 20260504013014 | 51 | 286 | 0.0 | 0.0 | 0.00 | 0.00 | 0.00 | 31 | 1011.5 |
| 20260504011510 | 53 | 153 | 0.0 | 0.0 | 0.00 | 0.00 | 0.00 | 30 | 1011.7 |
| 20260504010009 | 55 | 252 | 0.0 | 2.0 | 0.00 | 0.00 | 0.00 | 27 | 1011.7 |